Wind_Speed
69 70 70 69 69 69 67 65 63 61 58 56 57 57 57 57 55 55 54 54 53 53 52 52 52 52 53 53 54 54 54 54 54 54 53 51 50 50 52 55 58 61 63 64 63 61 59 56 54 53 50 48 45 44 43 47 52 56 56 54 53 53 52 51 48 42 35 29 26 26 27 26 24 22 21 20 19 19 19 20 20 21 20 20 19 19
69 69 69 68 68 67 64 59 56 54 53 53 54 56 57 57 57 56 56 56 55 54 53 53 53 54 54 55 56 56 56 56 56 56 55 55 54 55 57 60 62 63 62 60 57 54 52 50 49 48 46 44 42 41 43 48 53 56 56 56 55 54 54 53 49 43 36 30 26 26 27 26 24 22 21 20 20 19 19 20 21 21 21 20 20 19
68 68 68 66 64 61 57 53 50 49 49 50 52 54 56 57 57 57 57 56 55 54 53 53 53 54 55 56 57 58 58 59 59 59 59 59 59 61 62 63 62 60 56 52 49 47 46 46 46 46 44 42 40 40 43 47 52 55 56 56 56 55 55 54 50 45 38 31 27 27 27 26 25 23 21 20 20 20 20 21 21 21 21 20 20 20
63 64 63 60 57 54 50 48 47 47 47 49 51 53 55 57 57 57 56 54 53 52 52 52 53 54 55 56 58 59 60 61 61 62 62 62 62 62 61 59 56 53 50 47 45 44 44 44 44 44 42 40 40 41 43 46 50 53 55 56 56 56 55 54 51 45 39 33 29 29 29 27 25 23 22 21 21 21 21 21 22 22 21 21 20 20
54 54 53 51 49 47 45 45 45 46 47 49 51 53 54 55 55 54 53 51 51 51 51 52 52 53 54 55 56 58 59 60 61 62 61 60 59 57 55 53 50 48 46 45 44 44 44 43 43 42 41 41 41 42 43 45 48 51 53 55 55 55 55 54 51 46 40 34 31 30 30 29 26 24 22 22 21 21 21 22 22 22 21 21 20 20
44 44 44 43 42 41 40 41 42 44 45 47 49 50 50 50 49 48 47 47 47 48 49 49 50 50 50 50 51 52 53 54 55 55 54 53 51 50 48 48 47 46 45 44 44 44 43 42 41 40 40 42 42 42 41 43 46 50 52 54 55 55 55 54 50 46 41 36 32 31 31 29 26 24 23 22 22 22 22 22 22 22 22 21 21 20
38 38 38 38 38 38 38 38 38 40 42 43 44 44 44 43 43 42 42 43 43 44 45 46 46 45 45 45 45 45 46 46 46 46 46 46 46 46 46 45 45 44 44 43 43 43 42 41 40 39 40 41 41 39 38 41 45 49 52 53 54 55 55 54 50 45 40 36 33 32 31 29 26 24 23 22 22 22 23 23 23 22 22 21 21 21
38 37 37 38 38 39 38 38 38 38 39 40 41 40 40 39 39 38 39 39 40 41 41 42 42 41 41 41 41 41 41 42 42 43 43 43 44 44 44 44 43 43 42 42 42 42 41 40 39 39 40 40 38 35 35 39 44 48 51 53 55 55 55 54 50 45 40 36 33 32 31 29 27 24 23 23 23 23 23 23 23 23 22 22 21 21
39 40 40 41 42 42 42 42 41 40 40 40 40 40 40 39 38 38 37 38 38 39 39 39 39 40 40 40 40 40 41 41 41 42 42 43 43 43 43 42 42 41 40 40 40 40 40 39 38 39 39 38 36 33 34 38 43 48 51 54 55 56 55 53 50 45 40 36 33 32 31 30 27 24 23 23 23 24 24 23 23 23 23 22 22 22
42 43 43 44 44 45 45 45 44 43 42 42 42 42 41 41 40 39 38 38 38 38 38 39 40 40 40 40 40 40 40 40 40 40 41 41 41 40 40 40 39 39 38 38 38 38 38 38 38 39 39 38 35 33 33 37 42 47 51 54 55 56 56 54 50 46 41 36 33 32 32 30 28 25 24 24 24 24 24 24 23 23 23 22 22 22
44 44 45 44 44 45 45 46 45 45 44 44 44 43 43 42 41 40 39 39 38 39 39 40 41 41 40 39 39 38 38 38 38 38 38 38 37 37 37 37 37 37 36 37 37 37 38 38 38 39 40 38 35 33 34 37 42 47 51 54 55 56 55 54 50 46 41 36 33 32 32 30 28 25 24 24 24 24 24 24 23 23 23 22 22 22
44 44 44 43 43 43 43 44 45 44 44 44 44 44 43 42 41 41 41 40 40 40 41 41 41 40 39 37 36 36 36 35 35 35 35 34 34 34 34 34 34 35 35 35 36 37 37 38 38 40 40 38 35 33 34 38 43 48 52 54 56 56 55 54 50 46 40 35 33 32 32 30 27 25 24 24 24 24 24 24 23 23 23 22 22 21
43 42 42 42 41 41 41 42 43 43 43 44 44 44 43 42 42 42 42 41 41 41 41 41 40 38 37 35 35 34 33 33 32 32 31 31 31 31 32 32 32 33 33 34 35 36 37 37 39 40 40 38 35 34 35 39 44 49 52 55 56 56 55 53 50 45 39 35 33 33 32 29 26 24 24 24 24 24 24 24 24 23 23 22 22 21
42 41 41 40 40 40 40 40 41 41 42 42 43 42 42 42 42 42 42 42 41 41 41 40 39 37 36 35 34 33 32 31 30 30 29 29 29 29 30 30 31 31 32 33 34 35 36 37 38 39 39 37 35 34 36 40 45 50 53 55 56 55 54 53 49 44 38 35 34 34 33 30 27 25 24 24 24 24 24 24 24 24 23 22 22 22
40 40 39 39 39 39 39 39 39 40 40 41 41 41 41 42 42 42 42 41 41 40 40 39 38 37 36 35 34 33 31 30 29 28 28 27 27 28 28 29 29 30 30 31 32 33 35 36 37 38 38 37 36 35 36 41 46 51 54 55 56 55 54 52 48 43 38 35 35 35 34 31 27 25 24 24 24 24 24 24 24 24 23 23 22 22
39 39 39 39 39 39 39 39 39 39 39 39 39 40 40 40 41 41 41 40 40 39 39 39 38 38 37 35 34 33 31 30 29 28 27 27 27 27 27 28 28 29 29 30 31 32 34 35 36 37 37 37 35 35 37 41 47 52 54 55 55 54 53 51 47 43 38 36 36 36 35 32 28 25 24 24 24 24 25 25 25 24 24 23 23 23
39 39 39 39 40 40 40 39 39 38 38 38 38 39 39 40 40 40 40 40 40 39 39 39 39 38 37 36 34 33 32 31 30 29 28 28 28 27 27 27 28 28 29 30 31 32 33 34 35 35 36 35 34 34 37 42 47 52 54 55 54 53 52 50 47 42 38 36 37 38 37 35 30 27 25 24 25 25 25 25 25 25 25 24 24 24
40 40 40 41 41 42 41 41 39 38 38 37 38 38 39 39 40 40 40 40 40 40 40 40 40 39 38 36 34 33 32 32 31 30 29 29 29 28 28 28 28 28 29 29 30 31 32 32 32 33 32 32 31 32 36 41 47 51 54 54 54 53 52 50 45 41 37 37 37 39 39 37 33 28 26 25 25 26 26 26 26 26 25 25 25 24
41 41 42 42 43 43 43 42 41 40 39 38 38 39 39 40 40 40 41 41 41 41 41 41 41 40 38 36 35 33 33 33 32 32 31 30 30 30 29 29 29 29 29 30 30 30 31 30 30 30 29 28 29 31 35 41 47 51 53 54 54 53 52 48 43 39 37 37 38 40 40 38 35 30 27 26 26 26 26 26 26 26 26 25 25 25
44 44 44 44 44 44 44 43 42 40 39 39 39 40 40 41 41 41 42 42 42 42 42 41 40 39 38 36 35 34 33 34 34 33 32 31 31 31 30 30 30 30 30 30 30 30 30 29 28 27 26 26 28 32 37 42 47 51 53 54 54 53 51 46 41 37 37 38 39 40 41 39 36 32 29 27 27 27 27 27 27 27 26 26 25 25
45 45 45 45 44 44 43 43 41 40 39 39 39 40 41 41 41 42 42 42 42 42 42 41 40 39 37 37 36 35 34 34 34 34 33 33 32 32 32 31 31 31 31 30 30 29 29 28 27 25 25 26 30 35 40 44 48 51 53 54 53 52 48 43 39 37 37 39 40 41 41 40 37 34 30 29 28 28 28 28 27 27 27 26 25 25
44 45 45 45 44 43 42 41 39 38 38 38 39 40 40 41 41 41 41 41 41 41 40 39 39 38 37 37 36 35 35 35 35 35 34 34 33 33 33 32 32 31 31 30 30 29 28 27 25 25 26 29 33 38 43 46 49 51 53 53 52 50 46 41 38 37 38 40 42 42 42 41 38 35 32 30 29 28 28 28 28 27 27 26 26 25
43 44 44 43 43 41 40 38 37 37 37 37 38 39 39 39 39 39 39 39 39 39 39 38 38 38 37 36 36 36 35 35 35 35 35 34 34 34 34 33 32 31 31 30 29 28 27 26 25 26 28 32 37 42 45 48 50 51 52 52 51 48 44 40 38 38 40 41 42 43 42 41 39 36 33 31 30 29 29 28 28 27 27 27 26 26
43 43 43 43 42 41 39 38 36 36 35 36 36 37 38 38 38 37 37 37 38 38 38 38 37 37 37 36 36 36 36 36 36 35 35 35 34 34 34 33 33 32 31 30 29 28 26 25 26 28 32 36 41 44 47 49 50 52 52 51 50 46 43 40 38 39 41 42 43 43 42 41 39 37 34 32 31 30 29 29 28 28 27 27 27 26
44 45 45 44 44 43 41 40 38 37 36 36 36 37 37 38 37 36 36 36 36 37 37 37 37 37 36 36 36 36 36 36 36 36 35 35 34 34 34 34 33 32 32 31 29 28 26 25 27 30 35 39 43 46 48 49 51 52 52 51 48 45 42 39 39 40 42 43 43 43 42 41 40 37 35 33 31 31 30 29 28 28 28 27 27 26
46 46 46 46 46 45 44 43 42 40 39 38 38 38 38 38 37 36 35 35 36 37 38 37 37 37 37 36 35 35 35 35 35 35 35 34 33 33 33 33 33 33 32 31 30 28 26 26 29 33 38 42 45 48 49 50 51 52 51 50 47 44 40 39 40 41 43 44 43 43 42 41 39 37 35 34 32 31 30 29 28 28 28 28 28 27
48 48 48 48 48 47 47 46 45 44 43 42 41 40 40 40 39 38 37 37 37 38 38 38 38 37 36 35 34 34 34 34 34 34 34 33 32 32 33 33 33 33 32 32 31 29 28 28 30 35 40 43 47 49 50 51 52 52 51 49 46 42 40 39 40 42 44 44 44 43 42 41 39 37 36 34 33 32 30 29 28 28 28 28 28 27
50 50 50 50 50 50 49 49 48 47 46 45 44 43 42 42 41 41 41 40 39 39 39 39 38 37 36 34 33 33 33 33 34 34 33 32 32 32 32 32 33 33 33 32 32 31 30 30 32 36 41 45 48 50 52 52 52 52 51 48 45 41 40 40 41 43 45 45 44 43 42 40 39 37 36 35 33 32 30 29 28 28 29 29 28 28
52 52 51 51 51 51 51 51 51 50 49 48 47 46 45 44 43 43 43 42 41 41 41 40 39 37 36 35 34 34 34 34 34 34 33 32 32 31 31 32 32 33 33 33 33 32 32 32 34 38 43 47 50 52 53 53 53 52 50 47 44 41 40 40 42 44 45 45 44 43 41 40 39 38 36 35 33 31 30 29 28 28 29 28 28 28
55 54 53 52 52 52 52 51 51 51 51 50 49 48 47 46 45 45 44 43 43 42 42 41 39 38 37 37 37 36 36 35 35 34 33 32 32 31 31 31 32 33 33 34 34 34 34 35 36 40 44 48 51 53 54 54 54 52 50 46 43 41 40 41 43 45 45 45 44 43 41 40 39 38 36 35 33 31 29 28 28 28 29 28 28 28
57 56 55 54 53 53 52 52 51 51 51 50 50 49 49 48 47 46 45 45 44 43 42 42 41 39 39 39 39 39 38 36 35 34 33 32 32 32 31 31 32 32 33 33 35 36 36 37 39 41 45 49 52 54 55 55 54 52 49 46 43 41 40 41 43 45 46 45 44 43 42 40 39 38 36 34 32 30 29 28 28 28 28 28 28 28
59 58 57 56 55 54 53 53 52 51 51 51 50 50 49 49 48 47 46 45 44 43 43 43 42 41 40 40 41 40 38 36 35 34 33 32 32 32 32 32 32 32 32 33 35 37 38 39 41 43 46 50 53 55 56 56 55 53 49 45 42 40 40 41 43 45 46 46 44 43 42 40 39 38 36 34 32 30 29 28 28 28 28 28 28 28
61 60 60 59 58 56 55 54 53 53 52 51 51 50 50 49 48 48 47 46 45 44 43 43 43 42 42 41 40 40 38 36 35 33 33 33 33 33 33 33 33 33 33 33 35 37 39 40 42 44 47 50 53 55 56 57 56 53 50 45 42 40 40 41 43 45 46 46 45 44 42 41 39 37 36 34 32 30 29 28 28 28 28 28 28 28
61 61 61 61 60 59 58 57 56 55 54 53 52 52 51 50 49 48 47 46 45 44 43 43 43 43 42 41 40 39 38 36 34 33 33 33 34 34 34 34 34 34 34 35 36 38 40 41 43 45 48 51 53 55 56 57 56 54 51 46 42 40 40 41 43 45 46 46 45 44 42 41 39 37 35 33 32 30 29 29 29 29 29 29 29 28
62 62 62 62 61 61 60 59 58 57 56 55 54 53 52 51 50 49 48 47 46 45 44 44 43 43 42 41 39 38 36 34 32 32 33 33 34 35 35 35 35 35 35 36 37 39 41 43 44 46 49 52 54 56 56 57 56 55 52 47 43 41 40 41 43 44 45 45 45 44 42 41 39 37 35 33 32 31 30 29 29 29 29 29 29 28
63 63 63 62 62 62 62 61 60 60 59 58 57 55 54 53 52 50 49 48 47 45 45 44 44 43 43 41 40 37 35 33 31 31 32 34 35 35 36 36 36 36 36 37 38 40 42 44 45 47 50 53 55 56 57 57 56 54 51 48 44 42 40 41 42 44 45 45 45 44 42 41 39 37 35 33 32 31 31 30 30 30 29 29 29 28
64 64 63 63 63 63 63 63 62 61 61 60 59 58 56 55 53 52 50 49 48 46 45 44 44 44 44 43 41 39 36 33 32 31 33 34 35 36 36 36 36 36 36 37 38 40 43 45 47 49 51 54 56 57 58 58 56 53 50 47 44 42 40 41 42 44 45 46 45 44 43 41 39 37 35 34 33 33 32 31 31 30 30 29 29 29
65 65 64 64 63 63 63 63 63 62 62 62 61 60 58 57 55 54 52 50 49 48 46 45 45 44 44 44 43 42 39 36 34 33 34 35 36 37 37 36 36 36 36 37 38 40 43 47 50 52 53 55 56 58 59 59 57 53 50 46 43 41 40 40 41 43 45 46 46 45 43 41 39 38 36 35 34 34 33 32 31 30 30 29 29 29
66 66 65 65 64 63 63 63 63 63 63 62 62 61 60 59 57 56 54 52 51 49 48 47 46 45 45 45 45 44 42 40 37 36 36 37 37 37 37 37 36 36 36 36 37 40 44 48 51 53 55 55 57 59 61 60 58 54 49 46 43 41 40 40 41 43 45 46 46 45 44 42 40 38 37 36 35 34 33 32 31 30 30 30 30 30
66 66 66 65 65 64 63 63 63 63 63 63 63 62 62 61 59 58 57 55 53 51 50 48 47 46 46 46 45 45 44 42 40 38 38 38 38 38 37 37 36 36 35 35 37 39 43 47 50 53 53 54 56 59 61 61 58 54 49 46 43 42 40 40 40 42 44 46 47 46 45 43 40 38 37 35 34 33 33 32 31 30 30 30 30 30
65 65 66 66 66 65 64 63 63 62 62 63 63 63 62 62 61 60 59 57 55 54 52 50 49 48 47 47 46 46 45 43 41 40 39 38 38 38 37 37 36 35 34 34 35 38 42 46 50 51 52 52 55 58 60 59 57 53 49 46 43 41 40 40 40 41 43 45 46 46 45 43 41 38 36 34 33 32 32 32 31 31 31 31 31 31
63 64 65 65 65 65 64 64 63 62 62 62 63 63 63 62 62 61 60 59 58 56 54 52 50 49 48 48 48 47 45 43 42 40 39 39 39 38 38 37 36 35 33 32 33 36 40 44 48 50 50 50 52 56 58 57 54 51 48 46 43 42 41 41 41 41 43 45 46 47 46 44 41 38 36 34 32 32 32 32 32 32 31 31 31 31
60 62 64 64 64 64 64 64 63 63 62 62 62 63 63 63 62 62 61 60 59 58 56 54 52 51 50 49 49 47 46 44 42 40 39 39 39 39 38 37 36 35 33 31 31 33 37 41 45 47 48 48 50 53 55 54 53 51 49 46 44 42 42 42 41 41 42 44 45 46 46 45 42 39 36 34 32 32 32 32 32 32 32 32 31 32
55 58 60 62 63 64 64 64 63 63 63 62 62 63 63 62 62 62 61 61 60 59 57 55 53 52 51 50 50 48 46 44 42 41 40 40 40 39 39 38 37 35 33 31 31 32 34 37 41 44 46 47 49 52 54 54 53 52 50 47 45 43 42 41 41 41 42 43 45 46 46 45 43 41 38 35 33 32 32 32 32 32 32 32 32 32
49 52 55 58 60 61 62 63 64 63 63 62 62 62 62 62 62 61 61 60 60 59 57 56 54 53 52 52 51 49 47 45 44 42 42 41 41 40 40 39 38 36 35 33 32 33 34 36 40 43 45 47 49 52 54 55 54 53 50 47 45 42 41 41 41 42 42 43 44 45 45 45 44 42 39 36 34 32 31 32 32 32 32 32 32 32
42 45 48 52 55 57 60 62 63 63 62 62 62 62 62 61 61 61 61 60 59 59 58 57 55 54 54 53 51 50 49 47 45 44 43 43 42 42 41 40 39 38 37 36 35 35 35 37 40 43 46 48 51 53 54 56 55 54 51 48 45 43 42 42 42 42 43 43 43 44 44 44 44 43 41 38 35 33 32 31 32 32 32 32 32 32
37 39 42 46 49 52 56 58 60 60 61 62 62 62 62 61 60 60 60 60 59 58 58 57 56 55 55 54 52 51 50 49 47 46 45 44 44 43 42 42 41 40 39 38 37 37 37 38 40 43 46 48 50 53 55 56 56 54 51 48 45 43 42 42 42 42 43 43 43 43 43 43 43 43 42 40 36 34 32 32 32 32 32 32 32 32
33 36 38 42 45 48 51 53 55 57 59 61 62 62 61 60 60 59 59 59 58 58 58 57 57 56 55 54 54 53 52 50 49 48 47 46 45 45 44 43 42 41 41 40 39 39 39 40 41 43 44 47 49 51 53 55 55 54 51 49 46 44 43 42 42 42 43 43 43 42 41 41 42 42 42 40 38 35 33 32 32 32 32 32 32 33
30 33 36 39 42 45 48 50 52 54 56 58 59 60 60 60 59 58 58 58 58 58 57 57 57 57 56 55 54 54 53 52 51 50 48 48 47 47 46 45 43 43 42 41 40 40 40 41 41 42 44 46 47 49 51 52 52 51 49 47 45 44 43 43 43 43 43 43 42 42 41 40 40 41 41 41 39 37 34 33 33 32 32 32 33 33
28 30 33 36 39 43 46 48 49 51 52 55 56 58 59 59 58 57 57 56 57 57 57 58 58 57 57 56 55 54 54 53 52 51 50 49 48 48 47 46 45 44 42 41 41 40 41 41 42 43 44 45 47 49 50 50 50 48 47 45 44 43 43 43 43 44 44 43 42 41 40 40 40 40 41 41 40 38 36 34 34 33 33 33 33 34
27 28 30 34 37 41 44 46 47 48 49 51 53 55 56 57 57 56 55 55 55 56 57 58 58 58 57 56 55 55 55 54 54 53 52 50 49 49 48 47 46 44 43 42 41 41 41 41 42 43 44 46 47 49 50 50 48 47 46 44 43 43 43 43 44 44 44 43 42 41 41 40 40 40 40 40 40 39 37 35 34 34 34 34 34 34
Wind_Direction
260 262 263 264 265 265 266 266 266 264 260 254 250 249 250 251 252 253 254 255 256 257 258 259 260 260 261 261 261 260 260 259 258 258 259 261 264 267 269 271 272 273 274 274 275 275 275 275 275 275 274 273 273 273 275 274 271 268 267 269 271 273 274 274 271 267 264 259 249 239 236 240 244 247 249 251 253 254 254 256 257 260 262 264 265 265
259 261 262 264 266 267 268 267 265 261 256 251 248 248 250 251 253 254 255 255 256 257 257 258 258 259 259 259 259 258 258 257 257 257 258 260 263 266 268 269 271 272 273 273 273 274 274 274 274 273 272 271 271 272 274 272 267 264 264 266 269 271 272 272 269 265 261 256 244 234 232 236 241 244 247 249 251 251 252 253 255 257 259 261 262 263
260 261 262 264 266 267 266 264 261 257 253 250 248 249 251 253 255 256 258 258 258 258 258 258 258 258 258 258 257 257 256 256 256 257 258 260 262 265 267 269 270 271 271 272 272 273 273 273 272 272 271 270 270 273 274 270 265 262 262 264 267 270 271 271 268 264 260 252 240 229 228 232 236 240 244 246 248 249 249 251 253 255 257 259 260 260
260 261 263 264 265 265 263 261 259 256 253 251 251 251 253 255 257 259 260 260 260 259 259 259 259 259 258 258 257 257 256 256 257 257 259 260 262 264 266 267 268 269 270 271 271 272 271 271 270 270 270 271 272 274 273 269 264 261 261 263 266 269 270 269 266 262 258 251 238 226 223 226 231 235 240 243 245 246 247 248 250 253 255 257 258 258
260 261 263 264 264 263 261 259 258 256 255 254 254 254 255 256 258 260 261 261 260 260 259 259 259 259 259 258 258 257 257 257 258 259 260 261 262 264 265 266 267 268 269 270 270 270 269 269 268 269 270 272 273 274 272 267 263 261 261 263 265 267 269 267 264 260 257 251 238 226 221 222 226 231 236 240 242 243 245 246 249 251 253 255 256 257
260 261 261 262 262 262 260 259 258 257 256 255 255 255 256 257 259 260 260 260 259 259 259 259 260 260 260 260 260 259 259 259 259 260 261 261 262 263 264 265 266 267 268 268 268 268 267 266 265 266 268 270 271 271 269 265 261 260 260 262 264 266 267 264 261 258 256 250 239 227 221 220 222 227 233 238 240 242 243 245 247 249 251 253 254 255
262 262 261 262 263 263 263 262 260 258 257 256 255 255 256 258 259 259 259 259 259 259 259 260 260 261 261 262 262 262 261 261 261 261 262 262 263 264 265 266 266 267 267 267 266 266 264 263 262 263 264 266 267 267 265 263 261 260 260 261 262 264 264 261 258 256 255 249 239 228 221 218 219 225 231 236 239 241 242 244 245 247 249 251 253 254
266 265 265 265 265 265 265 264 263 260 258 257 257 257 258 259 260 260 260 260 260 260 260 261 261 262 263 264 264 264 264 264 264 264 265 265 266 267 267 267 266 266 266 266 265 264 262 261 260 260 261 262 263 263 263 262 261 260 259 260 260 261 261 258 256 255 254 248 239 228 220 216 217 222 229 234 237 239 241 242 244 245 247 249 251 252
267 267 267 267 266 266 265 265 264 262 260 259 259 260 261 262 262 262 262 262 262 262 262 264 265 266 267 268 268 268 267 267 267 267 268 268 268 268 268 267 266 265 265 264 263 262 260 259 258 258 259 259 260 260 261 262 261 260 259 258 258 259 258 256 254 253 252 248 239 229 220 214 214 220 227 232 235 237 239 240 242 243 245 247 248 249
264 264 264 265 265 264 264 264 263 262 261 261 262 263 264 264 265 265 264 264 264 265 267 268 270 271 271 271 270 270 270 269 270 270 270 269 269 268 267 266 265 264 263 262 261 260 259 258 257 257 258 258 258 259 260 261 260 259 258 257 256 256 255 253 252 251 251 247 240 229 219 213 212 217 225 230 233 236 237 239 240 241 243 244 246 247
259 259 260 261 261 262 262 262 262 262 261 262 263 264 265 265 266 266 266 267 268 269 271 271 272 272 271 270 270 270 270 270 270 270 270 269 268 267 266 265 264 263 262 260 259 258 258 257 257 257 257 256 256 257 259 259 259 257 256 255 254 253 252 250 250 249 249 246 238 228 218 212 212 217 224 229 232 235 237 238 239 240 241 242 244 245
254 255 257 258 258 259 259 260 260 261 261 262 263 265 266 266 267 267 268 268 269 270 271 271 270 269 268 268 268 269 269 270 269 269 268 268 267 266 265 264 262 261 260 259 258 257 257 256 256 256 256 255 255 256 257 257 257 255 254 252 251 250 249 248 248 248 247 244 236 225 216 211 212 217 224 228 232 234 236 238 238 239 240 241 242 244
251 253 254 255 256 256 256 257 258 259 260 261 263 265 266 267 267 267 267 268 268 268 267 267 265 265 265 266 267 269 269 268 267 267 267 267 266 265 264 263 262 260 259 258 257 257 257 257 257 256 255 254 254 254 255 255 254 253 251 250 249 248 247 247 246 246 245 240 232 222 213 210 211 218 223 228 231 233 235 237 238 239 239 240 241 242
251 252 252 253 254 254 255 255 257 258 259 261 262 264 265 265 265 265 265 265 265 265 264 262 261 260 262 265 267 268 267 265 265 265 266 266 265 264 263 262 262 260 259 259 258 258 257 257 257 256 255 254 252 252 252 252 251 250 248 247 246 246 246 246 245 244 242 237 228 219 211 208 210 217 223 227 229 232 234 236 237 238 239 239 240 240
253 252 252 251 251 252 253 254 255 257 258 259 260 261 261 262 262 262 262 262 262 261 260 259 258 259 262 265 267 266 264 263 263 264 265 265 264 263 262 261 261 260 260 259 258 258 258 258 258 257 256 254 252 250 249 248 247 246 246 245 244 244 244 244 244 243 240 233 224 216 209 207 209 216 221 225 228 231 233 235 237 237 238 238 238 238
255 252 250 250 250 251 252 253 254 255 256 257 258 258 258 259 259 259 259 259 258 257 256 256 257 260 263 266 266 263 261 259 260 262 263 263 262 261 260 259 259 259 259 259 258 258 258 258 258 257 256 255 253 250 248 245 244 243 243 243 243 243 243 243 243 241 237 230 222 215 209 206 208 213 219 223 227 230 232 234 235 236 236 236 236 236
252 250 249 248 249 250 251 252 253 253 254 254 255 256 256 256 256 256 255 255 254 254 254 256 258 262 265 266 264 260 257 257 258 260 261 261 261 259 258 257 257 257 258 258 258 258 258 258 257 257 256 256 254 251 247 244 242 241 241 241 242 242 243 243 242 240 236 229 222 215 209 206 207 211 217 222 226 229 231 233 234 235 235 235 235 234
248 247 247 247 248 250 251 251 251 251 251 252 253 253 254 254 253 253 253 252 253 253 255 257 260 263 266 265 261 257 254 255 256 257 258 259 259 258 257 255 255 255 256 257 258 258 258 258 257 256 256 255 253 250 246 243 241 240 240 241 241 242 242 242 242 240 236 230 224 217 211 207 206 209 214 219 224 227 230 232 233 234 234 234 233 233
245 245 246 247 249 251 252 252 251 251 250 251 251 251 251 251 251 251 251 252 253 254 256 259 261 264 265 263 259 255 253 253 254 255 256 257 257 257 256 254 253 253 254 256 257 259 259 258 257 256 256 254 252 249 245 242 240 240 240 241 241 242 242 242 242 240 237 232 225 218 212 208 206 207 211 217 222 226 228 230 232 232 233 233 233 232
244 245 246 248 251 252 253 253 252 251 251 250 250 250 250 250 250 251 252 253 254 256 257 260 262 263 263 260 257 254 252 253 253 254 254 255 255 256 255 254 253 253 253 255 257 259 259 259 259 258 256 253 250 246 243 241 240 240 240 241 241 242 242 243 243 241 237 232 226 219 213 208 206 206 209 214 220 224 226 228 230 231 232 232 232 231
245 246 247 249 252 253 254 253 252 251 251 250 250 250 250 250 251 252 252 253 255 256 258 259 260 260 259 257 255 253 252 253 253 254 254 254 254 255 255 254 253 253 253 254 256 258 259 260 260 259 256 251 246 242 240 239 239 240 240 241 242 242 243 243 243 241 237 231 225 219 213 209 206 206 208 212 217 221 224 226 228 229 230 231 231 231
247 247 248 250 251 253 253 253 252 251 250 250 250 250 250 251 251 252 253 254 255 256 257 257 257 257 255 254 253 253 253 253 254 254 254 254 254 254 255 254 254 253 252 253 254 256 258 259 259 257 253 247 242 239 238 238 239 240 241 242 242 243 244 244 243 240 236 230 224 218 213 209 207 206 207 211 215 219 222 224 226 227 229 230 230 230
246 247 248 249 250 251 251 252 251 250 250 250 250 250 250 250 250 251 252 253 254 254 255 255 254 254 253 252 253 253 254 254 255 255 255 254 254 254 255 254 254 253 252 251 252 254 256 257 256 253 247 242 239 237 237 238 239 240 241 242 243 244 245 244 243 239 234 228 223 217 213 210 207 207 208 210 214 217 220 222 224 226 228 229 230 230
242 244 245 246 247 248 248 248 248 248 248 249 249 249 249 249 249 249 251 252 253 253 253 252 252 252 252 252 253 254 255 255 256 256 256 256 256 255 255 255 254 253 252 251 251 252 253 253 251 247 242 238 236 236 237 238 239 240 242 243 244 244 245 244 241 237 233 227 222 217 213 210 208 207 208 210 213 216 218 220 222 225 227 229 230 229
241 242 243 244 245 245 245 245 245 245 245 246 247 247 247 247 246 247 249 251 252 252 252 251 251 251 251 252 253 254 255 256 257 257 257 257 257 256 255 255 253 252 251 250 249 249 249 249 246 241 238 236 235 235 237 238 240 241 242 243 244 244 244 242 239 236 231 227 221 217 213 210 209 208 209 210 212 214 216 218 221 224 227 228 229 229
243 242 243 243 244 244 244 244 243 243 243 243 245 245 245 245 243 243 245 248 250 251 251 251 250 251 251 252 253 254 255 256 257 257 258 258 257 256 255 254 253 251 250 248 247 246 246 244 241 237 235 234 234 235 237 239 240 242 243 243 243 243 241 240 237 234 230 226 221 217 213 211 209 209 209 210 212 213 215 217 220 223 226 228 229 228
248 246 245 244 244 244 245 245 244 243 243 244 244 245 245 244 242 241 242 244 247 249 249 250 250 250 250 251 252 253 255 256 256 257 257 257 257 256 255 254 252 250 248 246 245 243 242 240 237 235 233 232 233 234 237 239 240 241 242 242 241 240 239 238 236 233 230 225 221 216 213 211 210 209 210 210 211 213 214 217 220 223 226 228 228 228
250 249 247 246 246 245 245 245 245 245 245 245 246 246 246 244 242 241 241 242 244 246 248 248 248 249 250 250 251 253 254 255 255 256 256 257 256 255 254 253 251 249 246 244 242 240 238 236 234 232 231 231 232 234 236 238 239 240 241 240 239 238 237 237 235 232 228 224 220 216 214 212 211 210 210 210 211 212 214 217 220 224 227 228 228 228
250 250 249 248 248 247 247 247 247 247 247 247 247 247 246 245 244 243 242 243 244 245 246 247 247 248 249 250 251 251 252 253 254 255 256 256 256 255 255 253 251 248 245 242 239 237 235 234 232 230 229 230 231 233 235 237 238 239 239 238 237 236 237 236 234 231 227 223 219 216 214 212 211 211 211 211 211 213 215 217 221 225 227 228 228 228
249 249 249 248 248 248 248 248 248 248 248 247 247 247 247 246 245 244 244 244 245 246 246 246 246 246 248 249 250 250 251 252 254 255 256 256 256 256 255 254 252 249 246 241 238 235 233 232 231 229 228 228 230 232 234 235 236 236 236 235 235 235 236 235 232 229 225 222 219 216 214 213 212 211 211 211 211 213 215 218 222 225 227 228 229 228
248 248 248 248 248 248 247 247 248 248 248 247 247 247 247 246 246 245 245 245 245 246 246 246 246 246 246 248 249 249 249 251 253 255 256 256 256 256 255 254 253 251 248 243 239 235 233 232 230 228 227 227 228 230 232 233 234 234 234 234 234 235 235 234 231 227 223 221 218 216 215 214 212 212 211 211 212 213 216 219 222 225 228 228 229 229
248 248 247 247 247 247 247 247 247 246 246 246 246 246 246 246 245 245 245 245 246 246 246 246 246 246 246 248 249 249 248 249 251 254 255 256 255 255 254 254 253 252 249 245 241 237 235 232 231 229 227 226 227 229 231 232 232 232 233 233 234 235 235 233 229 225 222 220 218 217 215 214 213 212 211 211 212 214 216 219 223 225 227 228 229 229
247 247 247 247 246 246 246 246 246 245 245 245 245 245 245 245 245 245 245 245 246 246 246 246 246 246 247 248 249 248 247 246 248 251 253 254 254 254 253 253 252 251 249 245 241 238 236 234 231 229 226 226 226 228 229 230 230 231 231 232 233 234 234 232 228 225 222 220 218 217 216 214 213 212 211 212 213 215 217 220 222 224 226 227 228 229
245 245 245 245 245 245 245 245 245 245 244 244 244 244 244 244 244 244 245 245 245 246 246 246 246 246 247 248 248 247 245 244 245 248 251 252 253 253 253 252 252 251 249 245 241 237 235 233 230 227 225 225 226 227 228 229 229 229 230 231 232 234 233 231 228 225 222 220 219 217 216 214 213 212 212 212 214 215 217 219 221 224 225 226 227 228
243 243 243 243 243 243 243 243 244 244 244 244 243 243 243 243 243 244 244 244 245 245 246 246 246 246 247 248 248 246 244 243 243 246 249 251 252 253 253 252 252 251 249 246 241 237 234 232 229 226 223 223 224 225 227 228 228 228 229 230 232 233 233 231 228 225 222 221 219 218 216 214 213 212 212 213 214 216 217 219 221 222 224 225 226 227
243 243 242 242 242 242 242 242 242 242 243 243 243 243 243 243 243 243 243 244 244 245 245 246 246 246 246 246 247 246 244 243 243 245 248 250 252 252 252 252 252 251 249 246 242 237 234 231 228 225 222 221 221 223 225 227 227 227 228 229 231 233 233 232 228 225 223 221 219 218 216 215 213 213 213 214 215 216 217 218 219 221 222 224 225 225
244 243 242 241 241 241 241 241 241 241 241 242 242 242 242 242 242 242 242 243 243 244 244 245 245 245 245 245 245 246 246 245 245 246 248 250 252 252 252 252 252 251 249 245 241 237 233 230 227 223 220 219 220 221 223 225 226 226 226 228 231 233 234 232 229 226 223 221 220 218 217 215 214 214 214 215 216 216 216 217 218 219 221 222 223 224
245 244 243 242 241 240 240 240 240 240 240 241 241 242 242 242 241 241 241 242 242 242 243 243 244 244 244 244 244 245 247 247 247 248 249 250 251 252 252 252 252 251 249 245 240 236 232 228 224 220 217 217 218 220 223 224 225 225 226 228 231 234 234 233 230 227 224 221 220 218 217 215 215 215 216 216 217 217 217 217 218 218 219 221 222 223
247 245 244 243 241 241 240 240 239 239 239 239 240 240 240 240 240 240 240 240 240 241 241 242 242 243 243 243 243 244 246 247 247 248 248 249 250 251 252 252 252 251 249 244 239 234 230 227 223 219 215 215 216 219 221 224 225 225 227 229 232 234 235 234 231 228 225 222 220 218 217 216 216 216 217 218 218 219 219 219 219 219 219 220 221 222
249 247 245 244 243 241 241 240 239 239 238 238 238 239 239 239 239 239 239 239 239 239 239 240 240 241 241 241 242 243 244 245 245 245 246 247 248 249 250 251 251 250 247 243 237 232 228 225 222 219 216 215 216 218 219 222 223 225 227 230 233 235 235 234 231 228 226 223 221 219 217 217 216 217 218 219 220 220 220 220 220 220 220 220 221 222
251 249 247 246 244 243 242 241 240 239 238 238 238 237 237 237 237 237 237 237 237 237 237 238 238 239 239 240 240 241 241 242 242 242 242 243 245 246 247 248 248 246 244 240 236 231 227 224 220 217 216 216 217 218 220 221 222 224 227 231 234 236 236 234 232 229 227 224 222 220 218 217 217 217 218 219 220 221 221 221 221 221 220 220 220 221
253 251 249 248 246 245 243 242 241 240 239 238 237 237 236 236 236 236 236 236 236 236 236 236 237 237 238 239 239 240 240 240 239 239 239 240 242 243 244 244 244 242 239 236 232 229 226 223 219 216 215 215 217 218 220 221 223 225 228 231 234 235 234 233 232 230 228 225 223 221 219 217 217 217 218 218 220 221 222 222 221 221 220 220 220 220
254 253 251 250 248 247 245 243 242 241 240 239 238 237 236 235 235 235 235 235 235 234 235 235 235 236 237 238 238 239 238 238 237 237 237 238 239 240 241 241 239 237 233 229 226 225 224 221 218 215 213 213 215 218 220 221 224 226 229 231 233 233 232 232 232 231 229 226 224 222 220 218 217 216 217 218 219 220 221 222 222 221 221 220 220 220
255 254 253 251 250 248 247 245 244 242 241 240 239 238 236 235 234 233 233 233 233 233 233 233 233 234 235 236 237 237 237 236 235 235 235 236 237 238 238 237 235 232 228 223 220 219 219 218 216 214 211 211 214 217 220 222 225 227 229 231 233 233 234 234 234 232 230 227 225 223 221 219 217 216 216 217 218 220 222 222 223 222 222 221 221 220
257 255 253 252 251 250 249 247 245 244 242 241 240 239 237 236 234 233 232 232 231 231 231 231 231 231 232 233 234 234 235 234 233 232 233 234 235 235 235 234 233 229 225 220 217 215 214 215 214 213 212 212 214 216 219 222 225 227 229 231 233 234 235 235 234 231 229 227 225 223 222 220 218 217 217 217 219 220 222 223 223 223 223 222 221 221
259 256 254 252 250 249 248 247 246 245 244 242 241 240 239 237 235 233 232 231 230 230 229 229 228 228 229 230 231 231 232 231 231 230 230 231 232 233 233 233 231 228 224 219 216 214 213 214 214 214 214 214 215 217 220 222 225 227 229 231 233 234 234 233 232 229 227 226 224 223 222 221 219 218 217 217 219 220 222 223 224 224 224 223 222 222
261 257 254 252 251 249 247 246 246 245 244 243 242 241 240 238 236 234 232 231 230 229 228 227 227 227 227 228 229 229 229 229 229 228 228 229 230 231 231 231 230 228 225 220 217 215 214 215 216 217 217 218 218 219 221 223 225 227 229 231 233 234 235 234 232 229 226 224 223 222 222 221 220 219 218 218 219 220 222 224 225 225 225 224 223 222
263 258 255 253 251 249 247 246 245 244 244 243 242 242 241 239 238 236 234 231 229 228 227 226 225 225 226 227 227 228 228 228 227 227 227 228 229 230 230 229 229 227 225 222 218 216 216 216 217 218 219 220 221 222 224 225 227 228 230 232 234 235 235 234 231 228 225 223 222 222 222 221 221 220 219 218 218 220 222 224 225 225 225 225 224 223
264 259 256 253 251 249 247 245 243 242 242 242 242 242 241 240 239 237 235 232 230 228 226 225 224 223 224 225 226 227 227 226 226 226 226 227 228 229 229 228 228 227 225 222 219 217 217 217 218 219 220 220 222 224 226 228 229 230 231 233 234 234 234 232 229 226 223 222 222 221 221 221 221 220 219 218 218 220 222 224 226 226 226 226 225 224
262 258 255 253 251 249 246 244 242 241 240 240 241 241 240 240 239 237 236 234 231 229 226 225 223 222 223 224 225 225 226 225 225 224 225 225 226 227 228 227 227 226 225 223 220 218 218 218 219 219 220 220 221 223 226 228 230 231 232 233 233 233 231 229 226 224 222 222 221 222 221 221 221 221 220 219 218 219 221 224 226 227 226 226 225 224
258 254 252 251 250 248 246 244 241 239 238 238 239 239 239 239 238 237 236 235 232 230 227 225 223 222 222 223 224 224 225 225 224 224 224 223 224 225 226 226 226 225 225 223 221 219 219 219 219 219 220 221 222 224 225 227 229 230 231 232 232 231 228 226 224 222 221 221 222 222 222 222 222 221 220 219 219 220 221 224 226 227 227 227 226 225
Height
3046 3047 3047 3048 3050 3052 3053 3056 3058 3059 3059 3061 3063 3064 3065 3065 3066 3066 3066 3067 3067 3067 3068 3068 3069 3069 3070 3070 3070 3070 3070 3070 3070 3070 3070 3069 3069 3069 3069 3069 3068 3068 3067 3067 3067 3067 3067 3067 3067 3067 3068 3069 3070 3071 3071 3073 3073 3072 3071 3072 3072 3072 3073 3073 3074 3075 3076 3077 3078 3080 3081 3081 3082 3083 3083 3084 3084 3084 3085 3085 3086 3086 3086 3086 3086 3087
3043 3044 3044 3044 3046 3047 3048 3050 3052 3053 3054 3056 3058 3059 3061 3061 3061 3061 3062 3062 3062 3063 3063 3064 3064 3065 3066 3066 3066 3067 3067 3067 3067 3067 3066 3066 3066 3066 3066 3065 3065 3064 3064 3064 3063 3063 3063 3063 3063 3064 3064 3065 3066 3067 3068 3070 3070 3070 3069 3069 3069 3070 3070 3071 3072 3072 3073 3074 3076 3077 3079 3080 3080 3081 3081 3082 3082 3083 3083 3084 3084 3084 3084 3085 3085 3085
3040 3040 3041 3041 3041 3042 3044 3046 3047 3049 3050 3052 3054 3055 3056 3056 3056 3057 3057 3057 3058 3059 3059 3060 3060 3061 3061 3061 3062 3063 3063 3063 3063 3063 3063 3063 3063 3062 3062 3062 3061 3061 3061 3060 3060 3060 3060 3060 3060 3061 3061 3062 3062 3064 3065 3067 3067 3067 3066 3066 3066 3066 3067 3068 3069 3070 3070 3071 3072 3074 3076 3077 3078 3079 3080 3080 3081 3081 3081 3082 3082 3082 3083 3083 3083 3084
3036 3037 3037 3037 3038 3039 3041 3042 3044 3045 3047 3048 3050 3051 3051 3051 3052 3052 3053 3053 3054 3054 3055 3056 3056 3056 3057 3057 3058 3058 3059 3059 3059 3059 3059 3059 3059 3059 3059 3058 3057 3057 3057 3056 3056 3056 3056 3057 3057 3058 3058 3058 3059 3061 3062 3063 3064 3064 3064 3064 3064 3064 3064 3065 3066 3067 3067 3068 3069 3071 3073 3075 3076 3077 3078 3078 3079 3079 3080 3080 3081 3081 3081 3081 3082 3082
3033 3033 3034 3034 3034 3036 3037 3039 3040 3041 3043 3044 3045 3046 3046 3047 3047 3048 3048 3049 3050 3050 3051 3051 3052 3052 3052 3053 3053 3054 3055 3055 3055 3055 3055 3055 3055 3055 3055 3054 3054 3053 3053 3053 3053 3053 3053 3054 3054 3055 3056 3056 3057 3058 3059 3060 3061 3061 3061 3061 3061 3061 3061 3062 3063 3064 3064 3065 3066 3067 3069 3071 3073 3075 3076 3076 3077 3077 3078 3078 3079 3079 3079 3080 3080 3080
3030 3030 3031 3031 3031 3032 3034 3035 3036 3038 3039 3040 3041 3041 3042 3042 3043 3044 3044 3045 3046 3046 3046 3047 3047 3048 3048 3049 3049 3050 3050 3050 3051 3051 3051 3051 3051 3051 3051 3050 3050 3050 3049 3049 3049 3050 3050 3050 3051 3052 3053 3054 3055 3056 3056 3057 3057 3058 3058 3058 3058 3058 3058 3059 3060 3061 3061 3062 3063 3065 3066 3068 3071 3072 3074 3074 3075 3076 3076 3077 3077 3077 3078 3078 3078 3079
3026 3026 3027 3027 3028 3029 3030 3031 3032 3034 3034 3035 3036 3037 3038 3038 3039 3040 3041 3041 3042 3042 3043 3043 3044 3044 3045 3045 3046 3046 3046 3046 3046 3047 3047 3047 3047 3047 3046 3046 3046 3046 3046 3046 3046 3046 3046 3047 3048 3049 3050 3051 3052 3053 3053 3054 3054 3055 3055 3055 3055 3055 3056 3056 3057 3058 3059 3060 3061 3062 3064 3066 3068 3070 3071 3072 3073 3074 3074 3075 3075 3076 3076 3076 3076 3077
3021 3021 3022 3023 3024 3025 3026 3027 3028 3030 3031 3031 3032 3033 3034 3035 3035 3036 3037 3037 3038 3038 3039 3040 3040 3041 3041 3041 3042 3042 3042 3042 3043 3043 3043 3043 3043 3042 3042 3042 3041 3041 3041 3042 3042 3042 3043 3044 3045 3046 3047 3048 3049 3050 3050 3051 3051 3052 3052 3052 3052 3052 3053 3054 3055 3056 3057 3058 3058 3060 3061 3063 3065 3067 3069 3070 3071 3072 3072 3073 3073 3074 3074 3075 3075 3075
3017 3018 3018 3019 3020 3021 3022 3023 3025 3026 3027 3028 3028 3029 3030 3031 3031 3032 3033 3034 3034 3035 3036 3036 3036 3036 3037 3037 3038 3038 3038 3038 3038 3038 3038 3038 3038 3038 3038 3037 3037 3037 3037 3038 3039 3039 3040 3041 3042 3043 3044 3045 3046 3046 3047 3047 3048 3049 3049 3050 3050 3050 3051 3051 3052 3053 3055 3056 3056 3057 3059 3061 3063 3065 3067 3068 3069 3070 3071 3071 3072 3072 3072 3073 3073 3074
3015 3016 3016 3016 3017 3018 3019 3020 3021 3022 3024 3024 3025 3025 3026 3027 3028 3029 3029 3030 3030 3031 3031 3031 3032 3032 3033 3033 3033 3033 3034 3034 3034 3034 3034 3034 3034 3034 3033 3033 3033 3033 3034 3035 3035 3036 3037 3038 3039 3040 3041 3041 3042 3043 3044 3044 3045 3046 3046 3047 3047 3048 3048 3049 3050 3051 3052 3053 3054 3056 3057 3059 3061 3063 3065 3066 3067 3068 3069 3070 3070 3071 3071 3071 3071 3072
3013 3013 3014 3014 3015 3015 3016 3016 3017 3018 3020 3021 3021 3021 3022 3023 3024 3025 3025 3026 3026 3027 3027 3027 3028 3028 3029 3029 3030 3030 3030 3030 3031 3031 3030 3030 3030 3030 3030 3030 3030 3030 3031 3031 3032 3033 3034 3035 3036 3037 3038 3039 3039 3040 3041 3041 3042 3043 3044 3045 3045 3045 3046 3046 3047 3048 3049 3051 3052 3054 3055 3057 3059 3061 3063 3064 3065 3066 3067 3067 3068 3069 3069 3069 3070 3070
3010 3011 3011 3011 3012 3012 3013 3013 3014 3015 3016 3017 3017 3018 3018 3019 3020 3021 3021 3022 3023 3023 3023 3024 3024 3025 3026 3026 3026 3027 3027 3027 3027 3027 3027 3027 3027 3027 3026 3026 3027 3027 3028 3029 3030 3031 3031 3032 3033 3034 3035 3036 3036 3037 3037 3039 3040 3041 3041 3042 3042 3043 3043 3044 3045 3046 3047 3049 3050 3051 3053 3055 3057 3059 3061 3062 3063 3064 3065 3066 3066 3066 3067 3067 3068 3068
3006 3007 3007 3008 3008 3009 3009 3010 3011 3011 3012 3013 3013 3014 3015 3016 3016 3017 3018 3018 3019 3020 3020 3021 3021 3022 3023 3023 3024 3024 3024 3024 3025 3025 3024 3024 3024 3024 3024 3024 3025 3025 3026 3026 3027 3028 3029 3030 3030 3031 3032 3032 3033 3034 3035 3036 3037 3038 3039 3039 3040 3041 3041 3041 3042 3043 3045 3046 3048 3049 3051 3053 3055 3057 3058 3060 3061 3062 3062 3063 3064 3065 3065 3066 3066 3066
3002 3003 3004 3004 3004 3005 3006 3006 3007 3008 3008 3009 3010 3011 3012 3012 3013 3014 3014 3015 3016 3016 3016 3017 3018 3019 3020 3021 3021 3021 3021 3021 3021 3022 3022 3021 3021 3022 3022 3022 3022 3023 3023 3024 3025 3026 3026 3027 3028 3028 3029 3029 3030 3031 3032 3033 3035 3036 3036 3037 3037 3038 3039 3039 3040 3041 3043 3044 3045 3047 3049 3051 3052 3054 3056 3057 3058 3060 3061 3061 3062 3063 3063 3064 3064 3065
2999 3000 3000 3000 3001 3002 3002 3003 3004 3005 3005 3006 3007 3008 3008 3009 3010 3010 3011 3011 3012 3012 3013 3013 3014 3015 3017 3018 3019 3019 3019 3019 3019 3019 3019 3019 3019 3019 3020 3020 3020 3021 3021 3022 3022 3023 3023 3024 3024 3025 3026 3026 3027 3028 3029 3031 3032 3033 3034 3034 3035 3035 3036 3037 3038 3039 3040 3041 3043 3045 3046 3048 3050 3052 3053 3055 3056 3057 3058 3059 3060 3061 3061 3062 3062 3063
2996 2996 2996 2997 2997 2998 2999 3000 3001 3002 3002 3003 3004 3004 3005 3006 3006 3007 3007 3008 3008 3009 3010 3010 3011 3012 3013 3015 3016 3016 3016 3016 3016 3016 3016 3016 3017 3017 3017 3017 3018 3018 3019 3019 3020 3020 3021 3021 3021 3022 3022 3023 3024 3025 3026 3028 3029 3030 3031 3031 3032 3033 3033 3034 3036 3036 3037 3039 3040 3042 3044 3046 3047 3049 3051 3052 3054 3055 3056 3057 3058 3059 3060 3060 3061 3061
2992 2993 2993 2994 2994 2995 2996 2997 2998 2999 3000 3000 3001 3001 3002 3002 3003 3003 3004 3004 3005 3005 3006 3006 3007 3008 3010 3011 3013 3013 3014 3013 3014 3014 3014 3014 3014 3015 3015 3015 3016 3016 3016 3017 3017 3017 3017 3018 3018 3019 3020 3021 3021 3022 3024 3025 3026 3027 3028 3029 3030 3030 3031 3032 3033 3034 3035 3036 3038 3040 3041 3043 3045 3047 3049 3050 3051 3052 3054 3055 3056 3057 3058 3059 3059 3060
2989 2989 2990 2990 2991 2992 2993 2994 2995 2996 2996 2997 2997 2998 2998 2999 2999 3000 3000 3001 3001 3002 3002 3003 3004 3005 3006 3008 3009 3010 3011 3011 3011 3011 3011 3011 3011 3011 3012 3013 3013 3014 3014 3014 3015 3015 3015 3015 3016 3016 3017 3018 3019 3020 3021 3022 3024 3025 3026 3027 3027 3028 3029 3029 3031 3032 3033 3034 3036 3037 3039 3041 3042 3044 3046 3048 3049 3050 3051 3053 3054 3055 3056 3057 3058 3058
2985 2986 2986 2987 2987 2988 2989 2991 2991 2992 2993 2994 2994 2995 2995 2995 2996 2996 2996 2997 2998 2998 2999 3000 3001 3002 3003 3004 3005 3006 3007 3007 3007 3008 3008 3009 3009 3009 3010 3010 3011 3011 3012 3012 3012 3012 3012 3013 3013 3014 3015 3015 3016 3018 3019 3020 3021 3022 3023 3024 3025 3026 3026 3027 3029 3030 3031 3033 3034 3035 3036 3038 3040 3041 3043 3045 3046 3048 3049 3051 3052 3053 3054 3055 3056 3056
2981 2982 2983 2983 2984 2985 2986 2987 2988 2989 2990 2990 2991 2991 2991 2991 2992 2993 2993 2994 2995 2995 2996 2997 2998 2999 3000 3001 3001 3002 3003 3004 3004 3005 3005 3006 3006 3006 3007 3007 3008 3009 3010 3010 3010 3010 3010 3011 3011 3012 3012 3013 3014 3016 3017 3018 3019 3020 3021 3022 3022 3023 3024 3026 3027 3028 3030 3031 3032 3033 3034 3036 3037 3039 3041 3043 3044 3046 3047 3048 3050 3051 3052 3053 3054 3055
2978 2979 2979 2980 2981 2981 2982 2983 2985 2986 2987 2987 2987 2987 2987 2988 2989 2989 2990 2991 2991 2992 2993 2994 2995 2996 2996 2997 2997 2998 3000 3000 3001 3001 3002 3003 3003 3003 3004 3005 3005 3006 3007 3007 3008 3008 3008 3008 3009 3009 3010 3011 3012 3014 3015 3016 3017 3018 3019 3019 3020 3021 3022 3024 3026 3027 3028 3029 3030 3031 3032 3034 3035 3037 3039 3040 3042 3043 3045 3046 3047 3049 3050 3051 3052 3052
2975 2975 2976 2977 2977 2978 2978 2980 2981 2982 2983 2983 2983 2983 2984 2985 2986 2986 2987 2988 2988 2989 2989 2990 2991 2992 2993 2993 2994 2995 2996 2996 2997 2997 2999 2999 3000 3001 3001 3001 3002 3003 3004 3005 3006 3006 3006 3006 3007 3007 3008 3009 3010 3011 3013 3014 3015 3016 3016 3017 3018 3019 3021 3022 3024 3025 3026 3027 3028 3029 3030 3032 3033 3035 3036 3038 3040 3041 3042 3044 3045 3046 3048 3049 3050 3050
2971 2971 2972 2973 2974 2974 2975 2976 2977 2978 2979 2979 2980 2980 2981 2982 2982 2983 2984 2984 2985 2985 2986 2987 2988 2988 2989 2990 2991 2991 2992 2993 2994 2994 2995 2996 2997 2997 2998 2999 3000 3000 3001 3002 3003 3003 3004 3004 3005 3006 3006 3007 3008 3009 3011 3011 3012 3013 3014 3015 3016 3018 3019 3021 3022 3023 3024 3025 3026 3027 3028 3030 3031 3033 3034 3036 3037 3039 3040 3042 3043 3045 3046 3047 3047 3048
2966 2967 2968 2969 2970 2971 2971 2973 2974 2975 2975 2976 2976 2977 2978 2978 2979 2980 2981 2981 2981 2982 2983 2984 2985 2985 2986 2987 2987 2988 2989 2990 2991 2991 2992 2993 2994 2995 2995 2996 2997 2997 2998 2999 3000 3001 3002 3002 3003 3004 3005 3006 3006 3007 3008 3009 3010 3011 3012 3013 3015 3016 3017 3019 3020 3021 3022 3023 3024 3025 3026 3028 3029 3031 3032 3034 3035 3037 3038 3040 3041 3042 3044 3045 3045 3046
2961 2962 2963 2965 2966 2967 2968 2969 2970 2971 2972 2972 2973 2974 2975 2975 2976 2977 2978 2978 2978 2979 2980 2981 2981 2982 2983 2984 2985 2985 2986 2987 2987 2988 2989 2990 2991 2991 2992 2993 2994 2995 2996 2997 2998 2999 3000 3001 3001 3002 3003 3003 3004 3005 3006 3007 3008 3009 3010 3011 3013 3014 3016 3017 3018 3019 3020 3021 3022 3023 3024 3026 3027 3029 3030 3031 3033 3035 3036 3037 3039 3040 3041 3042 3043 3044
2956 2957 2959 2960 2961 2963 2964 2964 2965 2966 2967 2968 2969 2970 2971 2971 2972 2973 2974 2975 2975 2976 2977 2977 2978 2978 2980 2981 2981 2982 2983 2984 2985 2985 2986 2987 2988 2989 2989 2990 2991 2991 2993 2994 2995 2996 2997 2998 2999 3000 3000 3001 3002 3003 3004 3004 3006 3007 3008 3010 3011 3012 3014 3015 3016 3017 3018 3019 3020 3021 3022 3024 3025 3027 3028 3030 3031 3033 3034 3036 3037 3038 3040 3040 3041 3042
2952 2953 2954 2956 2957 2958 2960 2961 2961 2962 2963 2964 2965 2966 2967 2968 2969 2969 2970 2971 2972 2973 2973 2974 2974 2975 2976 2978 2979 2979 2980 2981 2981 2982 2983 2984 2985 2985 2986 2987 2988 2989 2990 2991 2992 2993 2995 2996 2996 2997 2998 2999 2999 3000 3001 3002 3003 3004 3006 3007 3009 3010 3012 3013 3014 3015 3016 3017 3018 3019 3021 3022 3023 3025 3026 3028 3029 3031 3032 3033 3035 3036 3037 3038 3039 3040
2947 2949 2950 2951 2953 2954 2955 2956 2957 2958 2960 2961 2961 2962 2963 2964 2965 2965 2965 2967 2968 2969 2970 2970 2971 2972 2973 2974 2975 2976 2977 2978 2978 2979 2980 2981 2981 2982 2983 2984 2984 2986 2987 2988 2990 2991 2992 2993 2994 2995 2996 2996 2997 2998 2999 3000 3001 3002 3004 3005 3007 3008 3009 3011 3011 3012 3013 3015 3016 3017 3019 3020 3021 3023 3024 3026 3027 3029 3030 3031 3033 3034 3036 3036 3037 3038
2943 2944 2946 2947 2948 2949 2951 2952 2953 2954 2955 2956 2958 2958 2959 2960 2960 2961 2962 2963 2965 2966 2966 2966 2968 2969 2970 2971 2972 2973 2974 2974 2975 2976 2977 2978 2978 2979 2980 2981 2981 2982 2984 2985 2987 2988 2989 2990 2991 2991 2993 2994 2994 2995 2996 2997 2998 3000 3001 3003 3004 3006 3007 3008 3009 3010 3011 3012 3014 3015 3016 3018 3020 3021 3022 3024 3026 3027 3028 3029 3031 3032 3034 3035 3036 3036
2939 2940 2941 2942 2943 2945 2946 2947 2948 2950 2951 2952 2953 2954 2955 2956 2956 2957 2959 2960 2961 2962 2962 2963 2965 2966 2967 2968 2969 2970 2970 2971 2972 2973 2974 2975 2975 2976 2977 2977 2978 2979 2980 2982 2984 2985 2986 2986 2987 2988 2989 2991 2991 2992 2993 2994 2996 2997 2999 3001 3002 3003 3004 3005 3006 3007 3009 3010 3012 3013 3015 3016 3017 3019 3021 3022 3023 3025 3026 3027 3029 3030 3032 3033 3034 3035
2934 2935 2936 2937 2939 2940 2941 2942 2943 2945 2946 2947 2949 2950 2951 2952 2953 2954 2955 2956 2957 2958 2959 2960 2961 2962 2963 2965 2965 2966 2967 2968 2970 2971 2971 2972 2972 2973 2974 2975 2975 2976 2977 2978 2980 2981 2982 2983 2984 2985 2986 2987 2988 2989 2990 2991 2992 2994 2996 2998 2999 3001 3002 3003 3004 3005 3006 3008 3010 3011 3012 3014 3016 3017 3019 3020 3021 3023 3024 3025 3027 3028 3030 3031 3032 3033
2929 2931 2932 2933 2934 2935 2936 2937 2938 2940 2941 2942 2944 2945 2946 2948 2949 2951 2951 2952 2953 2955 2956 2957 2958 2959 2960 2961 2961 2962 2964 2965 2966 2967 2968 2968 2969 2969 2971 2971 2972 2972 2974 2975 2976 2977 2978 2979 2980 2981 2982 2984 2985 2986 2987 2988 2990 2992 2994 2996 2997 2998 2999 3000 3001 3003 3004 3006 3007 3009 3010 3012 3013 3015 3016 3018 3019 3021 3022 3023 3025 3026 3028 3029 3030 3031
2924 2925 2926 2928 2929 2930 2931 2932 2934 2935 2936 2938 2939 2940 2942 2944 2945 2946 2948 2949 2950 2951 2953 2954 2955 2956 2956 2957 2958 2959 2961 2962 2963 2964 2965 2965 2965 2966 2967 2968 2968 2969 2970 2972 2973 2974 2975 2976 2977 2978 2979 2981 2982 2983 2984 2986 2987 2989 2991 2993 2994 2996 2996 2997 2999 3000 3002 3003 3005 3006 3008 3010 3011 3013 3014 3016 3017 3018 3020 3021 3023 3024 3026 3027 3028 3029
2917 2919 2920 2922 2924 2925 2926 2928 2929 2930 2931 2933 2934 2936 2938 2939 2941 2942 2944 2945 2947 2948 2949 2950 2951 2952 2953 2954 2955 2956 2957 2958 2959 2961 2961 2961 2962 2962 2964 2964 2965 2966 2967 2968 2969 2970 2971 2972 2974 2975 2976 2977 2979 2980 2981 2982 2984 2986 2988 2990 2991 2993 2994 2995 2996 2998 2999 3001 3002 3004 3006 3007 3009 3011 3012 3013 3015 3016 3018 3019 3021 3022 3023 3025 3026 3027
2910 2912 2914 2916 2917 2919 2921 2922 2924 2925 2926 2928 2930 2931 2933 2935 2936 2938 2940 2941 2943 2944 2946 2947 2948 2949 2950 2951 2952 2952 2953 2954 2956 2957 2957 2958 2958 2959 2960 2961 2961 2962 2963 2963 2965 2966 2967 2968 2970 2972 2973 2975 2976 2977 2978 2980 2981 2984 2986 2987 2989 2990 2991 2992 2994 2995 2997 2999 3000 3002 3003 3005 3007 3008 3010 3011 3013 3014 3016 3017 3019 3020 3021 3022 3023 3024
2903 2905 2907 2909 2911 2913 2915 2916 2918 2920 2921 2923 2925 2926 2928 2930 2932 2934 2936 2938 2939 2941 2942 2943 2945 2946 2947 2948 2949 2949 2950 2951 2952 2953 2954 2954 2955 2955 2956 2957 2958 2958 2959 2960 2960 2961 2962 2964 2966 2968 2970 2971 2972 2973 2975 2976 2978 2981 2983 2985 2986 2987 2989 2990 2991 2993 2995 2996 2998 3000 3001 3003 3004 3006 3008 3009 3011 3012 3013 3015 3016 3017 3019 3020 3021 3022
2897 2899 2901 2903 2905 2907 2909 2911 2912 2914 2916 2918 2920 2922 2924 2926 2928 2930 2932 2933 2935 2936 2938 2939 2941 2942 2943 2944 2945 2946 2946 2947 2948 2949 2950 2951 2951 2951 2952 2953 2954 2955 2955 2956 2956 2957 2958 2960 2962 2964 2966 2967 2968 2970 2971 2972 2975 2977 2980 2982 2983 2985 2986 2987 2989 2991 2992 2994 2996 2997 2999 3001 3002 3004 3005 3006 3008 3009 3011 3012 3013 3015 3016 3017 3019 3020
2891 2893 2895 2897 2899 2901 2903 2905 2907 2909 2911 2913 2915 2916 2919 2921 2923 2925 2927 2929 2931 2932 2934 2935 2937 2938 2939 2941 2941 2942 2942 2943 2944 2946 2946 2947 2947 2948 2949 2950 2951 2951 2951 2952 2952 2953 2954 2956 2957 2959 2961 2963 2965 2967 2968 2969 2971 2974 2976 2979 2981 2982 2983 2985 2986 2988 2990 2991 2993 2995 2996 2998 3000 3001 3003 3004 3005 3007 3008 3010 3011 3012 3014 3015 3016 3018
2885 2886 2889 2891 2893 2895 2897 2899 2901 2903 2905 2907 2909 2911 2913 2916 2918 2920 2922 2924 2926 2927 2929 2931 2932 2934 2935 2936 2937 2938 2938 2940 2941 2942 2943 2943 2944 2945 2945 2946 2947 2948 2948 2948 2948 2949 2950 2951 2952 2954 2956 2959 2962 2964 2966 2967 2969 2971 2974 2976 2978 2979 2981 2982 2984 2985 2987 2989 2991 2992 2994 2996 2997 2999 3000 3002 3003 3005 3006 3008 3009 3011 3012 3013 3014 3016
2879 2881 2883 2885 2887 2889 2891 2893 2895 2897 2900 2902 2904 2906 2908 2910 2912 2914 2916 2918 2921 2922 2924 2926 2928 2929 2931 2932 2933 2934 2935 2936 2937 2939 2939 2940 2941 2941 2942 2943 2944 2944 2945 2944 2944 2944 2945 2947 2949 2951 2954 2956 2958 2961 2962 2964 2966 2969 2971 2973 2975 2976 2978 2979 2981 2983 2985 2986 2988 2990 2991 2993 2995 2996 2998 3000 3001 3003 3005 3006 3007 3009 3010 3011 3012 3013
2873 2875 2877 2879 2881 2884 2886 2888 2890 2892 2894 2896 2897 2899 2901 2904 2906 2908 2911 2913 2915 2917 2919 2921 2923 2925 2926 2927 2929 2930 2931 2932 2934 2935 2936 2936 2937 2938 2939 2940 2941 2941 2941 2940 2940 2941 2941 2943 2946 2948 2951 2953 2956 2959 2960 2961 2964 2966 2968 2970 2971 2973 2975 2977 2978 2980 2982 2984 2986 2987 2989 2991 2993 2994 2996 2998 2999 3001 3002 3004 3005 3006 3007 3008 3010 3011
2868 2870 2871 2873 2875 2878 2880 2882 2884 2886 2888 2889 2891 2893 2895 2898 2900 2903 2905 2907 2910 2911 2914 2916 2918 2920 2921 2923 2924 2926 2927 2929 2930 2931 2932 2933 2934 2935 2936 2937 2937 2938 2937 2937 2937 2938 2939 2940 2942 2944 2946 2949 2953 2956 2958 2960 2962 2964 2966 2968 2969 2971 2973 2974 2976 2977 2979 2981 2983 2985 2987 2988 2990 2992 2994 2996 2997 2998 3000 3001 3002 3003 3004 3006 3007 3009
2863 2864 2866 2867 2870 2872 2873 2875 2877 2879 2881 2883 2885 2887 2889 2892 2895 2897 2899 2901 2904 2906 2909 2911 2913 2915 2917 2918 2920 2921 2923 2925 2927 2928 2929 2930 2931 2931 2932 2934 2934 2935 2935 2935 2935 2935 2936 2938 2940 2941 2943 2946 2950 2953 2956 2958 2960 2962 2964 2965 2966 2968 2969 2971 2972 2975 2977 2979 2980 2982 2984 2986 2988 2990 2991 2993 2995 2996 2997 2998 2999 3001 3002 3003 3005 3006
2857 2859 2860 2862 2864 2866 2867 2870 2871 2873 2875 2877 2879 2881 2883 2886 2889 2891 2894 2896 2898 2901 2904 2906 2909 2911 2913 2914 2916 2917 2920 2921 2923 2925 2926 2926 2927 2928 2929 2931 2931 2932 2932 2932 2932 2933 2935 2936 2938 2940 2942 2945 2948 2951 2954 2956 2957 2959 2960 2962 2963 2965 2966 2968 2970 2972 2974 2976 2978 2980 2981 2983 2985 2987 2989 2990 2992 2993 2994 2995 2996 2998 2999 3001 3002 3004
2852 2853 2855 2857 2858 2860 2862 2864 2866 2867 2870 2871 2874 2876 2878 2881 2883 2886 2888 2891 2893 2896 2899 2901 2904 2906 2907 2908 2911 2913 2915 2917 2919 2921 2922 2923 2924 2925 2926 2927 2928 2929 2930 2930 2930 2931 2933 2934 2936 2938 2941 2943 2946 2948 2951 2952 2954 2956 2957 2959 2961 2963 2965 2966 2968 2970 2971 2973 2975 2977 2979 2981 2982 2984 2986 2988 2989 2991 2992 2993 2994 2996 2997 2998 3000 3001
2848 2849 2850 2851 2853 2854 2856 2858 2860 2862 2864 2866 2868 2870 2872 2875 2878 2881 2883 2885 2888 2891 2893 2896 2898 2900 2901 2903 2906 2909 2911 2913 2914 2916 2918 2919 2921 2921 2923 2924 2925 2926 2927 2928 2929 2930 2931 2932 2934 2936 2939 2941 2943 2945 2947 2949 2951 2953 2955 2956 2958 2960 2962 2963 2965 2967 2969 2971 2972 2974 2976 2978 2980 2981 2983 2985 2986 2988 2989 2991 2992 2993 2994 2996 2997 2998
2843 2845 2846 2846 2847 2849 2850 2852 2855 2857 2859 2861 2863 2865 2867 2870 2873 2875 2877 2880 2883 2885 2888 2891 2893 2895 2896 2898 2901 2904 2906 2908 2910 2912 2914 2915 2916 2918 2919 2921 2922 2924 2925 2926 2926 2927 2929 2930 2932 2934 2936 2938 2940 2942 2944 2946 2948 2950 2951 2954 2956 2957 2958 2960 2962 2964 2966 2968 2970 2971 2973 2975 2977 2979 2980 2982 2984 2986 2987 2988 2989 2990 2991 2993 2994 2996
2838 2840 2841 2842 2843 2844 2845 2847 2849 2851 2853 2855 2857 2860 2862 2865 2867 2870 2872 2875 2877 2880 2883 2885 2887 2889 2891 2894 2897 2899 2901 2904 2906 2908 2910 2911 2913 2914 2916 2917 2919 2921 2921 2922 2924 2925 2926 2927 2929 2931 2933 2935 2937 2939 2941 2943 2945 2947 2949 2951 2952 2954 2956 2957 2960 2962 2964 2965 2967 2969 2971 2972 2974 2976 2978 2980 2981 2983 2984 2986 2986 2988 2989 2990 2992 2993
2834 2835 2836 2837 2838 2839 2840 2841 2843 2846 2848 2850 2852 2855 2857 2859 2862 2865 2867 2870 2872 2875 2878 2880 2882 2884 2887 2889 2891 2894 2897 2900 2902 2904 2906 2907 2909 2910 2912 2914 2915 2916 2918 2919 2920 2921 2922 2924 2926 2928 2930 2932 2934 2936 2938 2940 2942 2944 2946 2948 2950 2951 2953 2955 2957 2959 2961 2962 2964 2966 2968 2970 2971 2973 2975 2976 2978 2980 2981 2983 2984 2985 2986 2988 2989 2991
2829 2831 2831 2832 2833 2834 2834 2836 2838 2841 2843 2845 2847 2849 2852 2854 2857 2860 2862 2865 2867 2870 2872 2875 2877 2880 2882 2884 2886 2890 2892 2894 2896 2899 2901 2903 2905 2906 2908 2909 2911 2912 2914 2915 2916 2918 2919 2921 2923 2925 2926 2929 2931 2933 2935 2936 2939 2941 2943 2945 2946 2948 2950 2952 2954 2956 2958 2960 2962 2964 2966 2967 2969 2970 2972 2973 2975 2977 2978 2980 2981 2982 2984 2985 2986 2988
2826 2826 2827 2828 2829 2829 2829 2831 2833 2835 2837 2840 2842 2844 2847 2849 2852 2855 2857 2860 2862 2865 2867 2870 2873 2875 2877 2879 2882 2885 2887 2889 2891 2894 2896 2898 2901 2902 2904 2905 2907 2909 2910 2911 2912 2914 2916 2917 2919 2921 2923 2925 2927 2929 2931 2933 2935 2937 2940 2941 2943 2945 2947 2949 2951 2953 2956 2957 2959 2961 2963 2964 2966 2967 2968 2970 2972 2974 2975 2977 2978 2980 2981 2983 2984 2986